owner,sensor,date,latitude,longitude,vertical_datum,sea_water_practical_salinity,qcFlag 
DISL,ioos:station:DISL:MHPA:1,2014-10-01T00:00:00Z,30.6671,-87.9365,1.127,7.39,1111122 
DISL,ioos:station:DISL:MHPA:1,2014-10-01T00:30:00Z,30.6671,-87.9365,1.157,7.38,1111122 
DISL,ioos:station:DISL:MHPA:1,2014-10-01T01:00:00Z,30.6671,-87.9365,1.182,7.31,1111122 
DISL,ioos:station:DISL:MHPA:1,2014-10-01T01:30:00Z,30.6671,-87.9365,1.221,7.25,1111122 
DISL,ioos:station:DISL:MHPA:1,2014-10-01T02:00:00Z,30.6671,-87.9365,1.25,7.26,1111122 
DISL,ioos:station:DISL:MHPA:1,2014-10-01T02:30:00Z,30.6671,-87.9365,1.27,7.19,1111122 
DISL,ioos:station:DISL:MHPA:1,2014-10-01T03:00:00Z,30.6671,-87.9365,1.296,7.21,1111122 
DISL,ioos:station:DISL:MHPA:1,2014-10-01T03:30:00Z,30.6671,-87.9365,1.33,7.18,1111122 
DISL,ioos:station:DISL:MHPA:1,2014-10-01T04:00:00Z,30.6671,-87.9365,1.36,7.17,1111122 
DISL,ioos:station:DISL:MHPA:1,2014-10-01T04:30:00Z,30.6671,-87.9365,1.371,7.13,1111122 
DISL,ioos:station:DISL:MHPA:1,2014-10-01T05:00:00Z,30.6671,-87.9365,1.4,7.17,1111122 
DISL,ioos:station:DISL:MHPA:1,2014-10-01T05:30:00Z,30.6671,-87.9365,1.424,7.14,1111122 
DISL,ioos:station:DISL:MHPA:1,2014-10-01T06:00:00Z,30.6671,-87.9365,1.444,7.11,1111122 
DISL,ioos:station:DISL:MHPA:1,2014-10-01T06:30:00Z,30.6671,-87.9365,1.457,7.15,1111122 
DISL,ioos:station:DISL:MHPA:1,2014-10-01T07:00:00Z,30.6671,-87.9365,1.478,7.08,1111122 
DISL,ioos:station:DISL:MHPA:1,2014-10-01T07:30:00Z,30.6671,-87.9365,1.488,7.27,1111122 
DISL,ioos:station:DISL:MHPA:1,2014-10-01T08:00:00Z,30.6671,-87.9365,1.499,7.29,1111122 
DISL,ioos:station:DISL:MHPA:1,2014-10-01T08:30:00Z,30.6671,-87.9365,1.514,7.32,1111122 
DISL,ioos:station:DISL:MHPA:1,2014-10-01T09:00:00Z,30.6671,-87.9365,1.523,7.3,1111122 
DISL,ioos:station:DISL:MHPA:1,2014-10-01T09:30:00Z,30.6671,-87.9365,1.524,7.39,1111122 
DISL,ioos:station:DISL:MHPA:1,2014-10-01T10:00:00Z,30.6671,-87.9365,1.513,7.41,1111122 
DISL,ioos:station:DISL:MHPA:1,2014-10-01T10:30:00Z,30.6671,-87.9365,1.496,7.43,1111122 
DISL,ioos:station:DISL:MHPA:1,2014-10-01T11:00:00Z,30.6671,-87.9365,1.472,7.53,1111122 
DISL,ioos:station:DISL:MHPA:1,2014-10-01T11:30:00Z,30.6671,-87.9365,1.453,7.52,1111122 
DISL,ioos:station:DISL:MHPA:1,2014-10-01T12:00:00Z,30.6671,-87.9365,1.426,7.5,1111122 
DISL,ioos:station:DISL:MHPA:1,2014-10-01T12:30:00Z,30.6671,-87.9365,1.396,7.51,1111122 
DISL,ioos:station:DISL:MHPA:1,2014-10-01T13:00:00Z,30.6671,-87.9365,1.364,7.63,1111122 
DISL,ioos:station:DISL:MHPA:1,2014-10-01T13:30:00Z,30.6671,-87.9365,1.329,7.65,1111122 
DISL,ioos:station:DISL:MHPA:1,2014-10-01T14:00:00Z,30.6671,-87.9365,1.29,7.65,1111122 
DISL,ioos:station:DISL:MHPA:1,2014-10-01T14:30:00Z,30.6671,-87.9365,1.258,7.64,1111122 
DISL,ioos:station:DISL:MHPA:1,2014-10-01T15:00:00Z,30.6671,-87.9365,1.234,7.7,1111122 
DISL,ioos:station:DISL:MHPA:1,2014-10-01T15:30:00Z,30.6671,-87.9365,1.19,7.78,1111122 
DISL,ioos:station:DISL:MHPA:1,2014-10-01T16:00:00Z,30.6671,-87.9365,1.169,7.82,1111122 
DISL,ioos:station:DISL:MHPA:1,2014-10-01T16:30:00Z,30.6671,-87.9365,1.144,7.88,1111122 
DISL,ioos:station:DISL:MHPA:1,2014-10-01T17:00:00Z,30.6671,-87.9365,1.113,7.94,1111122 
DISL,ioos:station:DISL:MHPA:1,2014-10-01T17:30:00Z,30.6671,-87.9365,1.085,7.94,1111122 
DISL,ioos:station:DISL:MHPA:1,2014-10-01T18:00:00Z,30.6671,-87.9365,1.071,7.94,1111122 
DISL,ioos:station:DISL:MHPA:1,2014-10-01T18:30:00Z,30.6671,-87.9365,1.057,7.89,1111122 
DISL,ioos:station:DISL:MHPA:1,2014-10-01T19:00:00Z,30.6671,-87.9365,1.039,7.79,1111122 
DISL,ioos:station:DISL:MHPA:1,2014-10-01T19:30:00Z,30.6671,-87.9365,1.023,7.77,1111122 
DISL,ioos:station:DISL:MHPA:1,2014-10-01T20:00:00Z,30.6671,-87.9365,1.016,7.84,1111122 
DISL,ioos:station:DISL:MHPA:1,2014-10-01T20:30:00Z,30.6671,-87.9365,1.022,7.78,1111122 
DISL,ioos:station:DISL:MHPA:1,2014-10-01T21:00:00Z,30.6671,-87.9365,1.022,7.64,1111122 
DISL,ioos:station:DISL:MHPA:1,2014-10-01T21:30:00Z,30.6671,-87.9365,1.037,7.42,1111122 
DISL,ioos:station:DISL:MHPA:1,2014-10-01T22:00:00Z,30.6671,-87.9365,1.061,7.43,1111122 
DISL,ioos:station:DISL:MHPA:1,2014-10-01T22:30:00Z,30.6671,-87.9365,1.055,7.43,1111122 
DISL,ioos:station:DISL:MHPA:1,2014-10-01T23:00:00Z,30.6671,-87.9365,1.074,7.52,1111122 
DISL,ioos:station:DISL:MHPA:1,2014-10-01T23:30:00Z,30.6671,-87.9365,1.103,7.55,1111122 
DISL,ioos:station:DISL:MHPA:1,2014-10-02T00:00:00Z,30.6671,-87.9365,1.117,7.63,1111122 
DISL,ioos:station:DISL:MHPA:1,2014-10-02T00:30:00Z,30.6671,-87.9365,1.144,7.7,1111122 
DISL,ioos:station:DISL:MHPA:1,2014-10-02T01:00:00Z,30.6671,-87.9365,1.195,7.72,1111122 
DISL,ioos:station:DISL:MHPA:1,2014-10-02T01:30:00Z,30.6671,-87.9365,1.22,7.69,1111122 
DISL,ioos:station:DISL:MHPA:1,2014-10-02T02:00:00Z,30.6671,-87.9365,1.229,7.66,1111122 
DISL,ioos:station:DISL:MHPA:1,2014-10-02T02:30:00Z,30.6671,-87.9365,1.264,7.69,1111122 
DISL,ioos:station:DISL:MHPA:1,2014-10-02T03:00:00Z,30.6671,-87.9365,1.284,7.69,1111122 
DISL,ioos:station:DISL:MHPA:1,2014-10-02T03:30:00Z,30.6671,-87.9365,1.31,7.69,1111122 
DISL,ioos:station:DISL:MHPA:1,2014-10-02T04:00:00Z,30.6671,-87.9365,1.334,7.65,1111122 
DISL,ioos:station:DISL:MHPA:1,2014-10-02T04:30:00Z,30.6671,-87.9365,1.365,7.68,1111122 
DISL,ioos:station:DISL:MHPA:1,2014-10-02T05:00:00Z,30.6671,-87.9365,1.384,7.63,1111122 
DISL,ioos:station:DISL:MHPA:1,2014-10-02T05:30:00Z,30.6671,-87.9365,1.407,7.66,1111122 
DISL,ioos:station:DISL:MHPA:1,2014-10-02T06:00:00Z,30.6671,-87.9365,1.426,7.71,1111122 
DISL,ioos:station:DISL:MHPA:1,2014-10-02T06:30:00Z,30.6671,-87.9365,1.44,7.65,1111122 
DISL,ioos:station:DISL:MHPA:1,2014-10-02T07:00:00Z,30.6671,-87.9365,1.462,7.57,1111122 
DISL,ioos:station:DISL:MHPA:1,2014-10-02T07:30:00Z,30.6671,-87.9365,1.469,7.52,1111122 
DISL,ioos:station:DISL:MHPA:1,2014-10-02T08:00:00Z,30.6671,-87.9365,1.484,7.59,1111122 
DISL,ioos:station:DISL:MHPA:1,2014-10-02T08:30:00Z,30.6671,-87.9365,1.502,7.66,1111122 
DISL,ioos:station:DISL:MHPA:1,2014-10-02T09:00:00Z,30.6671,-87.9365,1.522,7.75,1111122 
DISL,ioos:station:DISL:MHPA:1,2014-10-02T09:30:00Z,30.6671,-87.9365,1.53,7.78,1111122 
DISL,ioos:station:DISL:MHPA:1,2014-10-02T10:00:00Z,30.6671,-87.9365,1.541,8.03,1111122 
DISL,ioos:station:DISL:MHPA:1,2014-10-02T10:30:00Z,30.6671,-87.9365,1.536,8.24,1111122 
DISL,ioos:station:DISL:MHPA:1,2014-10-02T11:00:00Z,30.6671,-87.9365,1.515,8.11,1111122 
DISL,ioos:station:DISL:MHPA:1,2014-10-02T11:30:00Z,30.6671,-87.9365,1.509,7.96,1111122 
DISL,ioos:station:DISL:MHPA:1,2014-10-02T12:00:00Z,30.6671,-87.9365,1.482,8.13,1111122 
DISL,ioos:station:DISL:MHPA:1,2014-10-02T12:30:00Z,30.6671,-87.9365,1.456,8.04,1111122 
DISL,ioos:station:DISL:MHPA:1,2014-10-02T13:00:00Z,30.6671,-87.9365,1.434,8.18,1111122 
DISL,ioos:station:DISL:MHPA:1,2014-10-02T13:30:00Z,30.6671,-87.9365,1.41,8.3,1111122 
DISL,ioos:station:DISL:MHPA:1,2014-10-02T14:00:00Z,30.6671,-87.9365,1.383,8.34,1111122 
DISL,ioos:station:DISL:MHPA:1,2014-10-02T14:30:00Z,30.6671,-87.9365,1.356,8.34,1111122 
DISL,ioos:station:DISL:MHPA:1,2014-10-02T15:00:00Z,30.6671,-87.9365,1.337,8.46,1111122 
DISL,ioos:station:DISL:MHPA:1,2014-10-02T15:30:00Z,30.6671,-87.9365,1.304,7.78,1111122 
DISL,ioos:station:DISL:MHPA:1,2014-10-02T16:00:00Z,30.6671,-87.9365,1.282,7.85,1111122 
DISL,ioos:station:DISL:MHPA:1,2014-10-02T16:30:00Z,30.6671,-87.9365,1.248,8.17,1111122 
DISL,ioos:station:DISL:MHPA:1,2014-10-02T17:00:00Z,30.6671,-87.9365,1.226,8.33,1111122 
DISL,ioos:station:DISL:MHPA:1,2014-10-02T17:30:00Z,30.6671,-87.9365,1.222,8.2,1111122 
DISL,ioos:station:DISL:MHPA:1,2014-10-02T18:00:00Z,30.6671,-87.9365,1.178,7.74,1111122 
DISL,ioos:station:DISL:MHPA:1,2014-10-02T18:30:00Z,30.6671,-87.9365,1.158,7.6,1111122 
DISL,ioos:station:DISL:MHPA:1,2014-10-02T19:00:00Z,30.6671,-87.9365,1.14,7.69,1111122 
DISL,ioos:station:DISL:MHPA:1,2014-10-02T19:30:00Z,30.6671,-87.9365,1.117,8.02,1111122 
DISL,ioos:station:DISL:MHPA:1,2014-10-02T20:00:00Z,30.6671,-87.9365,1.093,7.89,1111122 
DISL,ioos:station:DISL:MHPA:1,2014-10-02T20:30:00Z,30.6671,-87.9365,1.073,7.95,1111122 
DISL,ioos:station:DISL:MHPA:1,2014-10-02T21:00:00Z,30.6671,-87.9365,1.057,7.59,1111122 
DISL,ioos:station:DISL:MHPA:1,2014-10-02T21:30:00Z,30.6671,-87.9365,1.074,7.49,1111122 
DISL,ioos:station:DISL:MHPA:1,2014-10-02T22:00:00Z,30.6671,-87.9365,1.055,7.55,1111122 
DISL,ioos:station:DISL:MHPA:1,2014-10-02T22:30:00Z,30.6671,-87.9365,1.046,7.8,1111122 
DISL,ioos:station:DISL:MHPA:1,2014-10-02T23:00:00Z,30.6671,-87.9365,1.037,7.9,1111122 
DISL,ioos:station:DISL:MHPA:1,2014-10-02T23:30:00Z,30.6671,-87.9365,1.051,7.86,1111122 
DISL,ioos:station:DISL:MHPA:1,2014-10-03T00:00:00Z,30.6671,-87.9365,1.062,7.8,1111122 
DISL,ioos:station:DISL:MHPA:1,2014-10-03T00:30:00Z,30.6671,-87.9365,1.069,7.87,1111122 
DISL,ioos:station:DISL:MHPA:1,2014-10-03T01:00:00Z,30.6671,-87.9365,1.081,7.83,1111122 
DISL,ioos:station:DISL:MHPA:1,2014-10-03T01:30:00Z,30.6671,-87.9365,1.123,7.89,1111122 
DISL,ioos:station:DISL:MHPA:1,2014-10-03T02:00:00Z,30.6671,-87.9365,1.16,8.0,1111122 
DISL,ioos:station:DISL:MHPA:1,2014-10-03T02:30:00Z,30.6671,-87.9365,1.197,8.0,1111122 
DISL,ioos:station:DISL:MHPA:1,2014-10-03T03:00:00Z,30.6671,-87.9365,1.242,8.01,1111122 
DISL,ioos:station:DISL:MHPA:1,2014-10-03T03:30:00Z,30.6671,-87.9365,1.275,7.93,1111122 
DISL,ioos:station:DISL:MHPA:1,2014-10-03T04:00:00Z,30.6671,-87.9365,1.312,7.9,1111122 
DISL,ioos:station:DISL:MHPA:1,2014-10-03T04:30:00Z,30.6671,-87.9365,1.341,7.89,1111122 
DISL,ioos:station:DISL:MHPA:1,2014-10-03T05:00:00Z,30.6671,-87.9365,1.364,7.95,1111122 
DISL,ioos:station:DISL:MHPA:1,2014-10-03T05:30:00Z,30.6671,-87.9365,1.383,7.84,1111122 
DISL,ioos:station:DISL:MHPA:1,2014-10-03T06:00:00Z,30.6671,-87.9365,1.405,7.86,1111122 
DISL,ioos:station:DISL:MHPA:1,2014-10-03T06:30:00Z,30.6671,-87.9365,1.416,7.85,1111122 
DISL,ioos:station:DISL:MHPA:1,2014-10-03T07:00:00Z,30.6671,-87.9365,1.436,7.87,1111122 
DISL,ioos:station:DISL:MHPA:1,2014-10-03T07:30:00Z,30.6671,-87.9365,1.47,7.88,1111122 
DISL,ioos:station:DISL:MHPA:1,2014-10-03T08:00:00Z,30.6671,-87.9365,1.484,7.86,1111122 
DISL,ioos:station:DISL:MHPA:1,2014-10-03T08:30:00Z,30.6671,-87.9365,1.502,7.92,1111122 
DISL,ioos:station:DISL:MHPA:1,2014-10-03T09:00:00Z,30.6671,-87.9365,1.525,8.0,1111122 
DISL,ioos:station:DISL:MHPA:1,2014-10-03T09:30:00Z,30.6671,-87.9365,1.55,8.06,1111122 
DISL,ioos:station:DISL:MHPA:1,2014-10-03T10:00:00Z,30.6671,-87.9365,1.561,8.08,1111122 
DISL,ioos:station:DISL:MHPA:1,2014-10-03T10:30:00Z,30.6671,-87.9365,1.565,7.91,1111122 
DISL,ioos:station:DISL:MHPA:1,2014-10-03T11:00:00Z,30.6671,-87.9365,1.562,7.99,1111122 
DISL,ioos:station:DISL:MHPA:1,2014-10-03T11:30:00Z,30.6671,-87.9365,1.568,7.91,1111122 
DISL,ioos:station:DISL:MHPA:1,2014-10-03T12:00:00Z,30.6671,-87.9365,1.547,8.09,1111122 
DISL,ioos:station:DISL:MHPA:1,2014-10-03T12:30:00Z,30.6671,-87.9365,1.626,7.95,1111122 
DISL,ioos:station:DISL:MHPA:1,2014-10-03T13:00:00Z,30.6671,-87.9365,1.583,8.25,1111122 
DISL,ioos:station:DISL:MHPA:1,2014-10-03T13:30:00Z,30.6671,-87.9365,1.505,8.47,1111122 
DISL,ioos:station:DISL:MHPA:1,2014-10-03T14:00:00Z,30.6671,-87.9365,1.458,8.41,1111122 
DISL,ioos:station:DISL:MHPA:1,2014-10-03T14:30:00Z,30.6671,-87.9365,1.41,8.37,1111122 
DISL,ioos:station:DISL:MHPA:1,2014-10-03T15:00:00Z,30.6671,-87.9365,1.39,8.34,1111122 
DISL,ioos:station:DISL:MHPA:1,2014-10-03T15:30:00Z,30.6671,-87.9365,1.351,8.21,1111122 
DISL,ioos:station:DISL:MHPA:1,2014-10-03T16:00:00Z,30.6671,-87.9365,1.396,8.43,1111122 
DISL,ioos:station:DISL:MHPA:1,2014-10-03T16:30:00Z,30.6671,-87.9365,1.392,8.32,1111122 
DISL,ioos:station:DISL:MHPA:1,2014-10-03T17:00:00Z,30.6671,-87.9365,1.355,8.33,1111122 
DISL,ioos:station:DISL:MHPA:1,2014-10-03T17:30:00Z,30.6671,-87.9365,1.287,8.27,1111122 
DISL,ioos:station:DISL:MHPA:1,2014-10-03T18:00:00Z,30.6671,-87.9365,1.246,8.53,1111122 
DISL,ioos:station:DISL:MHPA:1,2014-10-03T18:30:00Z,30.6671,-87.9365,1.18,8.49,1111122 
DISL,ioos:station:DISL:MHPA:1,2014-10-03T19:00:00Z,30.6671,-87.9365,1.124,8.43,1111122 
DISL,ioos:station:DISL:MHPA:1,2014-10-03T19:30:00Z,30.6671,-87.9365,1.089,8.43,1111122 
DISL,ioos:station:DISL:MHPA:1,2014-10-03T20:00:00Z,30.6671,-87.9365,1.069,8.41,1111122 
DISL,ioos:station:DISL:MHPA:1,2014-10-03T20:30:00Z,30.6671,-87.9365,1.054,8.49,1111122 
DISL,ioos:station:DISL:MHPA:1,2014-10-03T21:00:00Z,30.6671,-87.9365,1.026,8.4,1111122 
DISL,ioos:station:DISL:MHPA:1,2014-10-03T21:30:00Z,30.6671,-87.9365,1.012,8.49,1111122 
DISL,ioos:station:DISL:MHPA:1,2014-10-03T22:00:00Z,30.6671,-87.9365,1.041,8.42,1111122 
DISL,ioos:station:DISL:MHPA:1,2014-10-03T22:30:00Z,30.6671,-87.9365,1.001,8.5,1111122 
DISL,ioos:station:DISL:MHPA:1,2014-10-03T23:00:00Z,30.6671,-87.9365,0.951,8.43,1111122 
DISL,ioos:station:DISL:MHPA:1,2014-10-03T23:30:00Z,30.6671,-87.9365,0.937,8.42,1111122 
DISL,ioos:station:DISL:MHPA:1,2014-10-04T00:00:00Z,30.6671,-87.9365,0.907,8.4,1111122 
DISL,ioos:station:DISL:MHPA:1,2014-10-04T00:30:00Z,30.6671,-87.9365,0.87,8.35,1111122 
DISL,ioos:station:DISL:MHPA:1,2014-10-04T01:00:00Z,30.6671,-87.9365,0.852,8.35,1111122 
DISL,ioos:station:DISL:MHPA:1,2014-10-04T01:30:00Z,30.6671,-87.9365,0.868,8.36,1111122 
DISL,ioos:station:DISL:MHPA:1,2014-10-04T02:00:00Z,30.6671,-87.9365,0.898,8.38,1111122 
DISL,ioos:station:DISL:MHPA:1,2014-10-04T02:30:00Z,30.6671,-87.9365,0.893,8.28,1111122 
DISL,ioos:station:DISL:MHPA:1,2014-10-04T03:00:00Z,30.6671,-87.9365,0.949,8.38,1111122 
DISL,ioos:station:DISL:MHPA:1,2014-10-04T03:30:00Z,30.6671,-87.9365,1.024,8.47,1111122 
DISL,ioos:station:DISL:MHPA:1,2014-10-04T04:00:00Z,30.6671,-87.9365,1.077,8.58,1111122 
DISL,ioos:station:DISL:MHPA:1,2014-10-04T04:30:00Z,30.6671,-87.9365,1.106,8.56,1111122 
DISL,ioos:station:DISL:MHPA:1,2014-10-04T05:00:00Z,30.6671,-87.9365,1.096,8.62,1111122 
DISL,ioos:station:DISL:MHPA:1,2014-10-04T05:30:00Z,30.6671,-87.9365,1.085,8.48,1111122 
DISL,ioos:station:DISL:MHPA:1,2014-10-04T06:00:00Z,30.6671,-87.9365,1.068,8.49,1111122 
DISL,ioos:station:DISL:MHPA:1,2014-10-04T06:30:00Z,30.6671,-87.9365,1.064,8.46,1111122 
DISL,ioos:station:DISL:MHPA:1,2014-10-04T07:00:00Z,30.6671,-87.9365,1.076,8.42,1111122 
DISL,ioos:station:DISL:MHPA:1,2014-10-04T07:30:00Z,30.6671,-87.9365,1.106,8.43,1111122 
DISL,ioos:station:DISL:MHPA:1,2014-10-04T08:00:00Z,30.6671,-87.9365,1.122,8.47,1111122 
DISL,ioos:station:DISL:MHPA:1,2014-10-04T08:30:00Z,30.6671,-87.9365,1.116,8.46,1111122 
DISL,ioos:station:DISL:MHPA:1,2014-10-04T09:00:00Z,30.6671,-87.9365,1.124,8.48,1111122 
DISL,ioos:station:DISL:MHPA:1,2014-10-04T09:30:00Z,30.6671,-87.9365,1.118,8.52,1111122 
DISL,ioos:station:DISL:MHPA:1,2014-10-04T10:00:00Z,30.6671,-87.9365,1.105,8.51,1111122 
DISL,ioos:station:DISL:MHPA:1,2014-10-04T10:30:00Z,30.6671,-87.9365,1.101,8.51,1111122 
DISL,ioos:station:DISL:MHPA:1,2014-10-04T11:00:00Z,30.6671,-87.9365,1.097,8.52,1111122 
DISL,ioos:station:DISL:MHPA:1,2014-10-04T11:30:00Z,30.6671,-87.9365,1.1,8.55,1111122 
DISL,ioos:station:DISL:MHPA:1,2014-10-04T12:00:00Z,30.6671,-87.9365,1.098,8.51,1111122 
DISL,ioos:station:DISL:MHPA:1,2014-10-04T12:30:00Z,30.6671,-87.9365,1.079,8.53,1111122 
DISL,ioos:station:DISL:MHPA:1,2014-10-04T13:00:00Z,30.6671,-87.9365,1.077,8.53,1111122 
DISL,ioos:station:DISL:MHPA:1,2014-10-04T13:30:00Z,30.6671,-87.9365,1.062,8.51,1111122 
DISL,ioos:station:DISL:MHPA:1,2014-10-04T14:00:00Z,30.6671,-87.9365,1.04,8.46,1111122 
DISL,ioos:station:DISL:MHPA:1,2014-10-04T14:30:00Z,30.6671,-87.9365,1.037,8.43,1111122 
DISL,ioos:station:DISL:MHPA:1,2014-10-04T15:00:00Z,30.6671,-87.9365,1.014,8.47,1111122 
DISL,ioos:station:DISL:MHPA:1,2014-10-04T15:30:00Z,30.6671,-87.9365,0.986,8.48,1111122 
DISL,ioos:station:DISL:MHPA:1,2014-10-04T16:00:00Z,30.6671,-87.9365,0.969,8.51,1111122 
DISL,ioos:station:DISL:MHPA:1,2014-10-04T16:30:00Z,30.6671,-87.9365,0.96,8.51,1111122 
DISL,ioos:station:DISL:MHPA:1,2014-10-04T17:00:00Z,30.6671,-87.9365,0.941,8.53,1111122 
DISL,ioos:station:DISL:MHPA:1,2014-10-04T17:30:00Z,30.6671,-87.9365,0.91,8.54,1111122 
DISL,ioos:station:DISL:MHPA:1,2014-10-04T18:00:00Z,30.6671,-87.9365,0.893,8.54,1111122 
DISL,ioos:station:DISL:MHPA:1,2014-10-04T18:30:00Z,30.6671,-87.9365,0.88,8.54,1111122 
DISL,ioos:station:DISL:MHPA:1,2014-10-04T19:00:00Z,30.6671,-87.9365,0.874,8.54,1111122 
DISL,ioos:station:DISL:MHPA:1,2014-10-04T19:30:00Z,30.6671,-87.9365,0.884,8.53,1111122 
DISL,ioos:station:DISL:MHPA:1,2014-10-04T20:00:00Z,30.6671,-87.9365,0.884,8.54,1111122 
DISL,ioos:station:DISL:MHPA:1,2014-10-04T20:30:00Z,30.6671,-87.9365,0.866,8.54,1111122 
DISL,ioos:station:DISL:MHPA:1,2014-10-04T21:00:00Z,30.6671,-87.9365,0.854,8.53,1111122 
DISL,ioos:station:DISL:MHPA:1,2014-10-04T21:30:00Z,30.6671,-87.9365,0.836,8.55,1111122 
DISL,ioos:station:DISL:MHPA:1,2014-10-04T22:00:00Z,30.6671,-87.9365,0.82,8.54,1111122 
DISL,ioos:station:DISL:MHPA:1,2014-10-04T22:30:00Z,30.6671,-87.9365,0.807,8.54,1111122 
DISL,ioos:station:DISL:MHPA:1,2014-10-04T23:00:00Z,30.6671,-87.9365,0.796,8.54,1111122 
DISL,ioos:station:DISL:MHPA:1,2014-10-04T23:30:00Z,30.6671,-87.9365,0.784,8.55,1111122 
DISL,ioos:station:DISL:MHPA:1,2014-10-05T00:00:00Z,30.6671,-87.9365,0.787,8.53,1111122 
DISL,ioos:station:DISL:MHPA:1,2014-10-05T00:30:00Z,30.6671,-87.9365,0.779,8.52,1111122 
DISL,ioos:station:DISL:MHPA:1,2014-10-05T01:00:00Z,30.6671,-87.9365,0.79,8.52,1111122 
DISL,ioos:station:DISL:MHPA:1,2014-10-05T01:30:00Z,30.6671,-87.9365,0.813,8.52,1111122 
DISL,ioos:station:DISL:MHPA:1,2014-10-05T02:00:00Z,30.6671,-87.9365,0.83,8.52,1111122 
DISL,ioos:station:DISL:MHPA:1,2014-10-05T02:30:00Z,30.6671,-87.9365,0.841,8.52,1111122 
DISL,ioos:station:DISL:MHPA:1,2014-10-05T03:00:00Z,30.6671,-87.9365,0.85,8.52,1111122 
DISL,ioos:station:DISL:MHPA:1,2014-10-05T03:30:00Z,30.6671,-87.9365,0.863,8.46,1111122 
DISL,ioos:station:DISL:MHPA:1,2014-10-05T04:00:00Z,30.6671,-87.9365,0.903,8.53,1111122 
DISL,ioos:station:DISL:MHPA:1,2014-10-05T04:30:00Z,30.6671,-87.9365,0.945,8.53,1111122 
DISL,ioos:station:DISL:MHPA:1,2014-10-05T05:00:00Z,30.6671,-87.9365,0.978,8.54,1111122 
DISL,ioos:station:DISL:MHPA:1,2014-10-05T05:30:00Z,30.6671,-87.9365,1.017,8.52,1111122 
DISL,ioos:station:DISL:MHPA:1,2014-10-05T06:00:00Z,30.6671,-87.9365,1.042,8.52,1111122 
DISL,ioos:station:DISL:MHPA:1,2014-10-05T06:30:00Z,30.6671,-87.9365,1.069,8.53,1111122 
DISL,ioos:station:DISL:MHPA:1,2014-10-05T07:00:00Z,30.6671,-87.9365,1.086,8.53,1111122 
DISL,ioos:station:DISL:MHPA:1,2014-10-05T07:30:00Z,30.6671,-87.9365,1.084,8.52,1111122 
DISL,ioos:station:DISL:MHPA:1,2014-10-05T08:00:00Z,30.6671,-87.9365,1.089,8.5,1111122 
DISL,ioos:station:DISL:MHPA:1,2014-10-05T08:30:00Z,30.6671,-87.9365,1.09,8.48,1111122 
DISL,ioos:station:DISL:MHPA:1,2014-10-05T09:00:00Z,30.6671,-87.9365,1.084,8.5,1111122 
DISL,ioos:station:DISL:MHPA:1,2014-10-05T09:30:00Z,30.6671,-87.9365,1.098,8.53,1111122 
DISL,ioos:station:DISL:MHPA:1,2014-10-05T10:00:00Z,30.6671,-87.9365,1.112,8.53,1111122 
DISL,ioos:station:DISL:MHPA:1,2014-10-05T10:30:00Z,30.6671,-87.9365,1.113,8.5,1111122 
DISL,ioos:station:DISL:MHPA:1,2014-10-05T11:00:00Z,30.6671,-87.9365,1.12,8.51,1111122 
DISL,ioos:station:DISL:MHPA:1,2014-10-05T11:30:00Z,30.6671,-87.9365,1.147,8.52,1111122 
DISL,ioos:station:DISL:MHPA:1,2014-10-05T12:00:00Z,30.6671,-87.9365,1.155,8.52,1111122 
DISL,ioos:station:DISL:MHPA:1,2014-10-05T12:30:00Z,30.6671,-87.9365,1.167,8.5,1111122 
DISL,ioos:station:DISL:MHPA:1,2014-10-05T13:00:00Z,30.6671,-87.9365,1.187,8.45,1111122 
DISL,ioos:station:DISL:MHPA:1,2014-10-05T13:30:00Z,30.6671,-87.9365,1.199,8.43,1111122 
DISL,ioos:station:DISL:MHPA:1,2014-10-05T14:00:00Z,30.6671,-87.9365,1.2,8.43,1111122 
DISL,ioos:station:DISL:MHPA:1,2014-10-05T14:30:00Z,30.6671,-87.9365,1.207,8.42,1111122 
DISL,ioos:station:DISL:MHPA:1,2014-10-05T15:00:00Z,30.6671,-87.9365,1.215,8.43,1111122 
DISL,ioos:station:DISL:MHPA:1,2014-10-05T15:30:00Z,30.6671,-87.9365,1.22,8.4,1111122 
DISL,ioos:station:DISL:MHPA:1,2014-10-05T16:00:00Z,30.6671,-87.9365,1.223,8.35,1111122 
DISL,ioos:station:DISL:MHPA:1,2014-10-05T16:30:00Z,30.6671,-87.9365,1.229,8.36,1111122 
DISL,ioos:station:DISL:MHPA:1,2014-10-05T17:00:00Z,30.6671,-87.9365,1.234,8.35,1111122 
DISL,ioos:station:DISL:MHPA:1,2014-10-05T17:30:00Z,30.6671,-87.9365,1.239,8.33,1111122 
DISL,ioos:station:DISL:MHPA:1,2014-10-05T18:00:00Z,30.6671,-87.9365,1.238,8.36,1111122 
DISL,ioos:station:DISL:MHPA:1,2014-10-05T18:30:00Z,30.6671,-87.9365,1.22,8.33,1111122 
DISL,ioos:station:DISL:MHPA:1,2014-10-05T19:00:00Z,30.6671,-87.9365,1.207,8.28,1111122 
DISL,ioos:station:DISL:MHPA:1,2014-10-05T19:30:00Z,30.6671,-87.9365,1.176,7.87,1111122 
DISL,ioos:station:DISL:MHPA:1,2014-10-05T20:00:00Z,30.6671,-87.9365,1.154,7.39,1111122 
DISL,ioos:station:DISL:MHPA:1,2014-10-05T20:30:00Z,30.6671,-87.9365,1.135,7.44,1111122 
DISL,ioos:station:DISL:MHPA:1,2014-10-05T21:00:00Z,30.6671,-87.9365,1.099,7.29,1111122 
DISL,ioos:station:DISL:MHPA:1,2014-10-05T21:30:00Z,30.6671,-87.9365,1.071,7.47,1111122 
DISL,ioos:station:DISL:MHPA:1,2014-10-05T22:00:00Z,30.6671,-87.9365,1.036,7.38,1111122 
DISL,ioos:station:DISL:MHPA:1,2014-10-05T22:30:00Z,30.6671,-87.9365,1.006,7.45,1111122 
DISL,ioos:station:DISL:MHPA:1,2014-10-05T23:00:00Z,30.6671,-87.9365,0.993,7.49,1111122 
DISL,ioos:station:DISL:MHPA:1,2014-10-05T23:30:00Z,30.6671,-87.9365,0.985,7.52,1111122 
DISL,ioos:station:DISL:MHPA:1,2014-10-06T00:00:00Z,30.6671,-87.9365,0.98,7.53,1111122 
DISL,ioos:station:DISL:MHPA:1,2014-10-06T00:30:00Z,30.6671,-87.9365,0.967,7.6,1111122 
DISL,ioos:station:DISL:MHPA:1,2014-10-06T01:00:00Z,30.6671,-87.9365,0.963,7.56,1111122 
DISL,ioos:station:DISL:MHPA:1,2014-10-06T01:30:00Z,30.6671,-87.9365,0.976,7.66,1111122 
DISL,ioos:station:DISL:MHPA:1,2014-10-06T02:00:00Z,30.6671,-87.9365,0.984,7.7,1111122 
DISL,ioos:station:DISL:MHPA:1,2014-10-06T02:30:00Z,30.6671,-87.9365,0.997,7.76,1111122 
DISL,ioos:station:DISL:MHPA:1,2014-10-06T03:00:00Z,30.6671,-87.9365,1.012,7.73,1111122 
DISL,ioos:station:DISL:MHPA:1,2014-10-06T03:30:00Z,30.6671,-87.9365,1.03,7.77,1111122 
DISL,ioos:station:DISL:MHPA:1,2014-10-06T04:00:00Z,30.6671,-87.9365,1.055,7.9,1111122 
DISL,ioos:station:DISL:MHPA:1,2014-10-06T04:30:00Z,30.6671,-87.9365,1.08,7.87,1111122 
DISL,ioos:station:DISL:MHPA:1,2014-10-06T05:00:00Z,30.6671,-87.9365,1.104,7.83,1111122 
DISL,ioos:station:DISL:MHPA:1,2014-10-06T05:30:00Z,30.6671,-87.9365,1.138,7.74,1111122 
DISL,ioos:station:DISL:MHPA:1,2014-10-06T06:00:00Z,30.6671,-87.9365,1.16,7.7,1111122 
DISL,ioos:station:DISL:MHPA:1,2014-10-06T06:30:00Z,30.6671,-87.9365,1.179,7.76,1111122 
DISL,ioos:station:DISL:MHPA:1,2014-10-06T07:00:00Z,30.6671,-87.9365,1.187,7.76,1111122 
DISL,ioos:station:DISL:MHPA:1,2014-10-06T07:30:00Z,30.6671,-87.9365,1.189,7.76,1111122 
DISL,ioos:station:DISL:MHPA:1,2014-10-06T08:00:00Z,30.6671,-87.9365,1.176,7.87,1111122 
DISL,ioos:station:DISL:MHPA:1,2014-10-06T08:30:00Z,30.6671,-87.9365,1.156,7.84,1111122 
DISL,ioos:station:DISL:MHPA:1,2014-10-06T09:00:00Z,30.6671,-87.9365,1.151,7.72,1111122 
DISL,ioos:station:DISL:MHPA:1,2014-10-06T09:30:00Z,30.6671,-87.9365,1.139,7.72,1111122 
DISL,ioos:station:DISL:MHPA:1,2014-10-06T10:00:00Z,30.6671,-87.9365,1.128,7.71,1111122 
DISL,ioos:station:DISL:MHPA:1,2014-10-06T10:30:00Z,30.6671,-87.9365,1.124,7.8,1111122 
DISL,ioos:station:DISL:MHPA:1,2014-10-06T11:00:00Z,30.6671,-87.9365,1.133,7.7,1111122 
DISL,ioos:station:DISL:MHPA:1,2014-10-06T11:30:00Z,30.6671,-87.9365,1.147,7.73,1111122 
DISL,ioos:station:DISL:MHPA:1,2014-10-06T12:00:00Z,30.6671,-87.9365,1.158,7.7,1111122 
DISL,ioos:station:DISL:MHPA:1,2014-10-06T12:30:00Z,30.6671,-87.9365,1.175,7.68,1111122 
DISL,ioos:station:DISL:MHPA:1,2014-10-06T13:00:00Z,30.6671,-87.9365,1.199,7.66,1111122 
DISL,ioos:station:DISL:MHPA:1,2014-10-06T13:30:00Z,30.6671,-87.9365,1.214,7.68,1111122 
DISL,ioos:station:DISL:MHPA:1,2014-10-06T14:00:00Z,30.6671,-87.9365,1.24,7.6,1111122 
DISL,ioos:station:DISL:MHPA:1,2014-10-06T14:30:00Z,30.6671,-87.9365,1.264,7.58,1111122 
DISL,ioos:station:DISL:MHPA:1,2014-10-06T15:00:00Z,30.6671,-87.9365,1.286,7.6,1111122 
DISL,ioos:station:DISL:MHPA:1,2014-10-06T15:30:00Z,30.6671,-87.9365,1.302,7.64,1111122 